Location: Kosice
(0.0000°N, 21.2500°E)
Time: 12:44:31
(UTC+01:00)

Daily predictions for brighter satellites

Satellite Brightness Start Highest point End
(mag) Time Altitude Azimuth Time Altitude Azimuth Time Altitude Azimuth
ASTRO E2 3.8 17:46:17 10° W 17:49:38 32° NNW 17:52:56 10° NNE
USA 305 4.0 17:52:07 10° NNE 17:54:29 17° NE 17:56:44 10° E
ATLAS 2A CENTAUR R/B 2.6 17:53:34 10° WNW 17:56:15 86° SSW 18:04:25 10° ESE
GPS 2-12 Rocket1 3.1 17:52:15 10° WSW 17:57:01 85° SSE 18:01:44 10° ENE
Cosmos 2251 Rocket 3.8 17:54:13 10° NNW 17:59:33 77° WSW 18:04:55 10° S
USA 307 3.3 17:57:38 10° N 18:00:40 26° NE 18:03:31 10° ESE
Cosmos 1151 Rocket 4.0 18:02:13 10° SSE 18:05:45 25° E 18:09:14 10° NE
DMSP B5D1-3 4.5 18:00:49 10° NNE 18:05:53 81° ESE 18:10:57 10° S
Maqsat-H 2.6 18:06:45 10° WSW 18:10:35 40° S 18:14:26 10° ESE
Tiangong 0.6 18:08:03 10° W 18:10:36 23° SW 18:13:10 10° SSE
Cosmos 2278 Rocket 2.5 18:05:39 10° SSW 18:11:17 70° WNW 18:16:54 10° N
Cosmos 1190 Rocket 4.0 18:06:22 10° N 18:11:32 63° ENE 18:16:41 10° SSE
Okean 3 Rocket 3.7 18:13:25 10° N 18:17:50 54° E 18:22:15 10° SSE
YAOGAN 1 3.4 18:14:44 10° SE 18:18:22 27° ENE 18:21:58 10° NNE
Cosmos 1655 Rocket 3.9 18:12:41 10° S 18:18:56 78° E 18:25:08 10° N
CZ-4B R/B 3.8 18:13:48 10° S 18:19:00 75° WSW 18:24:05 10° NNW
USA 306 1.8 18:17:17 10° NW 18:19:18 55° WSW 18:21:27 10° SSE
Okean 1 3.6 18:16:56 10° SSE 18:20:43 43° E 18:24:06 12° NNE
SL-08 ROCKET BODY 4.3 18:15:40 10° S 18:21:30 82° E 18:27:20 10° N
CBERS 1 LM4 rocket 4.4 18:17:40 10° SSE 18:22:41 87° WSW 18:27:30 10° NNW
Cosmos 1743 3.4 18:23:47 15° NNE 18:26:13 31° E 18:29:33 10° SSE
Meteor 1-19 Rocket 4.3 18:21:52 10° S 18:27:25 59° E 18:33:06 10° NNE
GPS 2-15 Rocket1 3.1 18:23:11 10° WSW 18:28:01 85° SSE 18:30:55 23° ENE
FALCON 9 R/B 1.6 18:24:30 10° WSW 18:28:37 43° NW 18:29:52 23° NNE
ISS -3.1 18:26:39 10° NW 18:29:56 57° SW 18:33:14 10° SSE
Meteor PRIRODA 3.3 18:27:01 10° SSE 18:30:29 80° ENE 18:33:53 10° N
Star 63D 4.5 18:25:36 10° WNW 18:32:54 84° SSW 18:34:58 17° ESE
Meteor 1-14 Rocket 4.3 18:27:54 10° N 18:33:24 58° E 18:39:02 10° SSE
Cosmos 1271 Rocket 3.8 18:30:21 10° NNW 18:34:03 47° W 18:37:44 10° S
CZ-2C R/B -0.1 18:35:54 10° NW 18:38:00 64° NNW 18:38:00 64° NNW
Ariane H10 2.6 18:36:23 10° WNW 18:39:05 65° N 18:42:51 23° E
Cosmos 1328 Rocket 4.4 18:36:18 10° SSE 18:40:00 28° E 18:40:02 28° E
ADEOS 3.5 18:35:25 10° SSE 18:40:38 84° ENE 18:45:50 10° N
Cosmos 1408 Rocket 3.5 18:38:12 12° N 18:42:02 54° E 18:46:15 10° SSE
HETE-2 4.4 18:38:42 10° W 18:42:44 87° N 18:44:11 39° E
SME Rocket 3.4 18:41:25 10° SSE 18:45:17 49° ENE 18:50:21 10° N
CZ-4B R/B 2.9 18:41:12 10° SSE 18:45:35 72° ENE 18:49:54 10° N
Cosmos 967 Rocket 4.5 18:39:24 10° SSW 18:45:39 82° WNW 18:50:42 17° NNE
Cosmos 1943 Rocket 2.3 18:41:03 10° SSW 18:46:42 74° WNW 18:51:35 14° N
Ariane H10 3.4 18:36:54 10° W 18:47:58 88° NNE 18:49:23 37° E
S3M 3.9 18:42:58 10° N 18:49:08 67° E 18:55:26 10° S
CENTAUR R/B 2.2 18:45:50 10° S 18:50:23 44° ESE 18:51:28 38° ENE
CZ-4B DEB 4.2 18:46:07 10° SSE 18:51:30 54° ENE 18:56:52 10° N
Meteor 1-29 3.3 18:50:11 10° S 18:52:47 45° WSW 18:53:56 26° NW
IGS 5A 3.5 18:50:28 10° S 18:54:31 73° WSW 18:58:35 10° NNW
Hubble Space Telescope 2.0 18:54:27 10° W 18:58:13 39° SSW 19:00:50 18° SSE
ATLAS 2AS CENTAUR R/B 2.8 18:54:39 10° N 19:00:42 41° ENE 19:06:45 10° SE
NOSS 3-2 (A) 3.4 18:56:53 10° S 19:01:36 38° ESE 19:01:36 38° ESE
Landsat 7 3.9 18:57:55 10° SSE 19:02:12 51° E 19:02:12 51° E
Sylda 4400 3.5 18:59:58 10° W 19:02:44 46° W 19:02:44 46° W
H-2A R/B 4.0 19:01:29 10° NNW 19:24:14 - ESE 19:06:08 30° NE
Cosmos 1805 Rocket 4.4 19:11:44 36° SSE 19:11:44 36° SSE 19:14:26 10° SSE
IUS-18 SRM-1 3.0 19:07:16 10° NW 19:10:23 66° NE 19:21:47 10° ESE
Meteor 2-4 Rocket 3.5 19:05:33 10° S 19:10:52 66° E 19:11:26 61° ENE
CZ-3 Stage 3 3.1 18:58:23 10° WNW 19:11:54 84° SSW 19:12:55 52° SE
SeaSat 1 4.3 19:19:08 18° SSE 19:19:08 18° SSE 19:20:55 10° SSE
Meteor 1-11 Rocket 3.5 19:17:06 67° ENE 19:17:25 69° E 19:22:56 10° SSE
Cosmos 1743 Rocket 4.3 19:22:03 43° S 19:22:03 43° S 19:24:59 10° S
ARIANE 3 DEB 4.4 19:16:54 10° WNW 19:22:04 56° N 19:23:16 51° NE
RESURS DK-1 3.9 19:23:13 10° NW 19:26:55 34° WSW 19:30:39 10° S
Cosmos 2369 Rocket 3.2 19:24:15 10° S 19:27:43 33° SSE 19:27:43 33° SSE
Cosmos 1656 Rocket 4.3 19:25:03 10° S 19:28:51 42° SSE 19:28:51 42° SSE
CZ-4B R/B 3.9 19:25:49 10° SSE 19:29:29 41° SSE 19:29:29 41° SSE
PAYLOAD B 4.2 19:25:58 10° S 19:31:28 78° WSW 19:32:44 54° NNW
Cosmos 1745 Rocket 4.3 19:35:26 10° S 19:40:08 52° SSE 19:40:08 52° SSE
Centaur Rocket 4.3 19:39:44 10° WSW 19:44:25 78° SSE 19:45:06 72° ESE
CZ-4C R/B 3.9 19:52:31 10° SW 19:53:41 18° SW 19:53:41 18° SW
ADEOS Rocket 4.4 20:00:24 10° S 20:02:46 26° S 20:02:46 26° S
CZ-4 R/B 4.5 20:09:14 10° SW 20:09:52 13° SW 20:09:52 13° SW
Milstar 3 Cent rocket 4.5 20:19:27 10° WSW 20:41:47 60° NW 20:42:09 59° NNW
